Kirkville, IA

1:18 AM CDT on September 27, 2016 (GMT -0500)
Ottumwa Industrial

Weather History for KOTM - April, 2013

Change the Weather History Date:

Tuesday, April 30, 2013

  Actual Average Record
Temperature  
Mean Temperature 75 °F 56 °F  
Max Temperature 87 °F 67 °F 95 °F (1926)
Min Temperature 62 °F 45 °F 27 °F (1908)
Degree Days  
Heating Degree Days 0 9  
Month to date heating degree days 522 435  
Since 1 July heating degree days 6060 6130  
Cooling Degree Days 10 1  
Month to date cooling degree days 12 10  
Year to date cooling degree days 12 11  
Growing Degree Days 26 (Base 50)    
Moisture  
Dew Point 50 °F    
Average Humidity 43    
Maximum Humidity 60    
Minimum Humidity 25    
Precipitation  
Precipitation 0.00 in 0.14 in 1.39 in (1997)
Month to date precipitation 8.59 3.40  
Year to date precipitation 13.94 7.82  
Sea Level Pressure  
Sea Level Pressure 29.70 in    
Wind  
Wind Speed 17 mph (SSW)    
Max Wind Speed 28 mph    
Max Gust Speed 38 mph    
Visibility 10 miles    
Events      
T = Trace of Precipitation, MM = Missing Value Source: NWS Daily Summary

Daily Weather History Graph

Daily Weather History Graph

Search for Another Location

Airport or City:

Trip Planner

Search our weather history database for the weather conditions in past years. The results will help you decide how hot, cold, wet, or windy it might be!

Date:

Astronomy

Apr. 30, 2013 Rise Set
Actual Time 6:08 AM CDT 8:06 PM CDT
Civil Twilight 5:38 AM CDT 8:35 PM CDT
Nautical Twilight 5:02 AM CDT 9:12 PM CDT
Astronomical Twilight 4:22 AM CDT 9:52 PM CDT
Moon 12:30 AM CDT (4/30) 10:37 AM CDT (4/30)
Length of Visible Light 14h 57m
Length of Day
13h 57m
Waning Gibbous, 70% of the Moon is Illuminated
Apr 30
Waning Gibbous
May 2
Last Quarter
May 9
New
May 17
First Quarter
May 24
Full

Hourly Weather History & Observations

Time (CDT) Temp. Dew Point Humidity Pressure Visibility Wind Dir Wind Speed Gust Speed Precip Events Conditions
12:53 AM 71.1 °F 55.9 °F 59% 29.60 in 10.0 mi South 15.0 mph - N/A   Clear
1:53 AM 71.1 °F 55.9 °F 59% 29.61 in 10.0 mi South 15.0 mph - N/A   Clear
2:53 AM 73.0 °F 53.1 °F 49% 29.61 in 10.0 mi SSW 19.6 mph 28.8 mph N/A   Clear
3:53 AM 72.0 °F 53.1 °F 51% 29.62 in 10.0 mi SSW 17.3 mph - N/A   Clear
4:53 AM 71.1 °F 53.1 °F 53% 29.63 in 10.0 mi SSW 15.0 mph 23.0 mph N/A   Clear
5:53 AM 70.0 °F 53.1 °F 55% 29.65 in 10.0 mi SSW 19.6 mph 27.6 mph N/A   Clear
6:53 AM 69.1 °F 53.1 °F 57% 29.68 in 10.0 mi South 17.3 mph - N/A   Clear
7:53 AM 71.1 °F 52.0 °F 51% 29.69 in 10.0 mi SSW 18.4 mph 25.3 mph N/A   Clear
8:53 AM 73.9 °F 50.0 °F 43% 29.70 in 10.0 mi SSW 21.9 mph 29.9 mph N/A   Clear
9:53 AM 77.0 °F 48.9 °F 37% 29.70 in 10.0 mi SW 21.9 mph 29.9 mph N/A   Clear
10:53 AM 80.1 °F 48.0 °F 32% 29.70 in 10.0 mi SW 17.3 mph 32.2 mph N/A   Clear
11:53 AM 82.0 °F 48.0 °F 30% 29.70 in 10.0 mi SW 21.9 mph 29.9 mph N/A   Clear
12:53 PM 84.0 °F 50.0 °F 31% 29.70 in 10.0 mi SSW 23.0 mph 27.6 mph N/A   Clear
1:53 PM 86.0 °F 48.9 °F 28% 29.69 in 10.0 mi SSW 23.0 mph 27.6 mph N/A   Clear
2:53 PM 86.0 °F 46.0 °F 25% 29.70 in 10.0 mi SSW 20.7 mph 28.8 mph N/A   Clear
3:53 PM 86.0 °F 46.9 °F 26% 29.69 in 10.0 mi South 21.9 mph 28.8 mph N/A   Clear
4:53 PM 84.9 °F 48.9 °F 29% 29.71 in 10.0 mi South 21.9 mph - N/A   Clear
5:53 PM 82.9 °F 48.0 °F 29% 29.73 in 10.0 mi South 26.5 mph 33.4 mph N/A   Clear
6:53 PM 80.1 °F 45.0 °F 29% 29.75 in 10.0 mi SSW 17.3 mph 26.5 mph N/A   Clear
7:53 PM 73.9 °F 48.9 °F 41% 29.76 in 10.0 mi SSW 8.1 mph - N/A   Clear
8:53 PM 68.0 °F 48.9 °F 50% 29.78 in 10.0 mi South 5.8 mph - N/A   Clear
9:53 PM 68.0 °F 51.8 °F 56% 29.82 in 10.0 mi South 8.1 mph - N/A   Clear
10:53 PM 66.0 °F 50.0 °F 56% 29.83 in 10.0 mi South 6.9 mph - N/A   Clear
11:53 PM 64.0 °F 50.0 °F 60% 29.83 in 10.0 mi South 8.1 mph - N/A   Clear